Location: Quaker Farms
(41.4276°N, 73.1557°W)
Time: 00:20:43
(UTC+00:00)

Altair - Pass Details

Date: 15 June 2021
Orbit: 1501 x 1682 km, 47.2° (Epoch: 23 July)

Event Time Altitude Azimuth Distance (km) Brightness Sun altitude
Rises 01:55:05 0° 297° (WNW) 4,873 11.5 -13.2°
Reaches altitude 10° 01:58:16 10° 294° (WNW) 3,903 10.7 -13.6°
Maximum altitude 02:07:54 54° 221° (SW) 1,975 8.0 -14.8°
Enters shadow 02:15:13 19° 153° (SSE) 3,241 8.6 -15.6°
Drops below altitude 10° 02:17:38 10° 147° (SSE) 3,933 - -15.9°
Sets 02:20:53 0° 143° (SE) 4,912 - -16.3°
